User: anonymous   Login
Location: Carrer del Canonge
(41.4901°N, 2.2931°E)
Time: 17:13:33
(UTC+00:00)
Language:

CZ-2D R/B - Orbit

View from above orbital plane
View from above orbital plane
View from above satellite
View from above satellite

Ground track
Ground track

The orbit data is extracted from the following two-line orbital elements,

1 28738U 05024B   21332.90653345  .00000969  00000-0  58816-4 0  9991
2 28738  97.3566 343.1025 0012590 145.9918 214.2123 15.12710321901422
Epoch (UTC): 28 November 2021 21:45:24
Eccentricity: 0.0012590
inclination: 97.3566°
perigee height: 519 km
apogee height: 536 km
right ascension of ascending node: 343.1025°
argument of perigee: 145.9918°
revolutions per day: 15.12710321
mean anomaly at epoch: 214.2123°
orbit number at epoch: 90142

The dashed part of the orbit path shows where the satellite is in the earth's shadow,  

DLR